IRIDIUM 33 DEB, 35052

Orbit data source: Space-Track

IRIDIUM 33 DEB, 35052 is space debris in LEO originally from a launch on Sun, 14 Sep 1997 UTC launched from the Tyuratam Missile And Space Complex (TTMTR). The debris from Iridium 33, an American commercial communications satellite, has been tracked extensively since its accidental collision with the defunct Russian satellite Cosmos 2251 in 2009. This event, occurring at high speed in low Earth orbit (LEO), generated thousands of pieces of space debris, significantly increasing the risk of further collisions. The Iridium 33 debris cloud has impacted space traffic management and orbital debris mitigation strategies, making it a subject of ongoing study in space situational awareness.

Loading next visibility...
Identifier
35052, 1997-051NY
Orbit
LEO
Country
Flag of USUS
Related business
Manufacturer
Unknown
Mission
Spacecraft
Bus & Motor
Unknown
Mass
Unknown
Launch date (UTC)
1997-09-14 (29 years ago)
Launch vehicle
Unknown
Launch site
Tyuratam Missile And Space Complex (TTMTR)
Object type
Payload
Rocket body
Debris
Shape & HBR
Unknown shape, 0.1 m
Radar Cross Section
Medium (>0.1 m² and <1 m²)

Expand to show TLE details & history
Last TLE update: 14 hours ago

TLE from 14 hours ago
0 IRIDIUM 33 DEB
1 35052U 97051NY  26208.95312941  .00000480  00000-0  14975-3 0  9990
2 35052  86.3297 283.0607 0013346  63.6336 296.6230 14.38759483905422
Epoch: 2026-07-27T22:52Z
TLE epoch observation values (Epoch: 2026-07-27T22:52:30.381Z)
Latitude
-0.00007°
Longitude
-5.69521°
Altitude
761.395 km
Speed
7.476 km/s
True Right ascension
18h 52m 14s
True Declination
0° 00' 00"
Sunlit
Object was in full shadow at epoch
Visualization orbit readout
Latitude
Unknown
Longitude
Unknown
Altitude
Unknown
Speed
Unknown
Apparent Right ascension
Unknown
Apparent Declination
Unknown
Sunlit
N/A
Visualization observer readout
Local Sidereal Time
02:15:17
Azimuth
Unknown
Elevation
Unknown
Doppler factor
Unknown
Orbital elements
Apogee altitude
769.085 km
Perigee altitude
750.034 km
Semi-major axis
7,137.697 km
Eccentricity
0.00133
Inclination
86.3297°
RAAN
283.0607°
Arg. of periapsis
63.6336°
True anomaly
296.48618°
Mean anomaly
296.623°
Eccentric anomaly
296.5546°
Mean motion
3.5992 °/min
Orbital period
100.02 mins
BSTAR
0.00014975
Loading maneuver chart data...
Computing Atmospheric mass density...

Documentation

Showing up to 5 results
|